Tracking 30009 objects as of 7-Dec-2024
HD Live streaming from Space Station
objects crossing your sky now

STARLINK-30421

Track STARLINK-30421 now!
10-day predictions
STARLINK-30421 is classified as:


NORAD ID: 58107
Int'l Code: 2023-161L
Perigee: 469.6 km
Apogee: 471.1 km
Inclination: 53.2 °
Period: 93.9 minutes
Semi major axis: 6841 km
RCS: Unknown
Launch date: October 21, 2023
Source: United States (US)
Launch site: AIR FORCE WESTERN TEST RANGE (AFWTR)
Your satellite tracking list
Your tracking list is empty




NASA's NSSDC Master Catalog

Two Line Element Set (TLE):
1 58107U 23161L   24342.11362881  .00000896  00000-0  37826-4 0  9992
2 58107  53.1591 125.8399 0001046  90.3914 269.7209 15.34228798 64319
Source of the keplerian elements: AFSPC